If you wish to contribute or participate in the discussions about articles you are invited to join SKYbrary as a registered user

 Actions

A Coruña Airport

From SKYbrary Wiki

LECO
Airport
ICAO: LECO – IATA: LCG
Summary
Name A Coruña Airport
Region Europe
Territory Spain ES.gif
Location Alvedro, Galicia
Serving La Coruna
Elevation 99.365 m <br />326 ft <br />326 ft99.365 m <br />
Type medium airport
Coordinates 43° 18' 7.42" N, 8° 22' 38.12" W
Runways
Designator Length Width Surface ROPS
4/22 1940 m6,364.829 ft <br /> 45 m147.638 ft <br /> ASP no/no


METAR
Observation LECO 151730Z VRB02KT 9999 FEW022 16/13 Q1020 NOSIG
Station La Coruna / Alvedro
Date/Time 15 October 2021 17:30:00
Wind direction °
Wind speed 02 kts
Lowest cloud amount few clouds
Temperature 16°C
Dew point 13°C
Humidity 82%
QNH 1020 hPa
Weather condition n/a

A Coruña Airport, formerly known as Alvedro Airport, is the airport serving the Galician city of A Coruña in northwestern Spain.

Climatology

humid oceanic climate with drier summers, (Köppen climate classification Cfb), heavily moderated by the Atlantic Ocean. Autumn and winter are often unsettled and unpredictable, with strong winds and abundant rainfall coming from Atlantic depressions, and it is often overcast.

Maps

Terrain

Loading map...

Airport Layout

Loading map...


Accidents & Serious Incidents at or in vicinity of LECO

None on SKYbrary